{"data":{"norad_id":50179,"epoch":"2026-09-19T21:27:04.891104Z","epoch_age_seconds":97100,"freshness":"FRESH","line1":"1 50179U 21125Z   26262.89380661  .00000095  00000+0  14815-4 0  9998","line2":"2 50179  53.1593  84.5877 0001250  96.0252 264.0892 15.31698908266095","mean_motion":15.31698908,"eccentricity":0.000125,"inclination_deg":53.1593,"raan_deg":84.5877,"arg_perigee_deg":96.0252,"mean_anomaly_deg":264.0892,"bstar":1.4815e-5,"rev_number":26609,"period_min":94.013254986273,"perigee_km":469.88714039145,"apogee_km":471.59936045406,"semimajor_km":6848.8802504228,"source":"CELESTRAK","updated_at":"2026-09-20T09:00:39.416510Z"}}